Roseburg, OR

12:52 PM PDT on September 01, 2014 (GMT -0700)
Hucrest | Change Station
CLOSE
Current Station
Personal Weather Station
Location: Roseburg, OR
Elevation: 425 ft
Nearby Weather Stations

Elev 425 ft 43.22 °N, 123.38 °W | Updated 2 minutes ago

Clear
Clear
79.4 °F
Feels Like 79 °F
N
2.0
Wind Variable Wind from West
Gusts 2.0 mph

Today
High -- | Low -- °F
--% Chance of Precip.
Yesterday
High -- | Low -- °F
Precip. -- in
6:37 AM 7:48 PM
Waxing Crescent, 43% visible
Pressure 30.03 in
Visibility 10.0 miles
Clouds Clear
Heat Index 79 °F
Dew Point 50 °F
Humidity 36%
Rainfall 0.00 in
Snow Depth Not available.
UV 8 out of 12
Pollen 2.90 out of 12
Air Quality Not available.
Flu Activity Not available.
METAR KRBG 011853Z AUTO 00000KT 10SM CLR 24/10 A3004 RMK AO2 SLP168 T02390100

More Conditions Fewer Conditions

Pressure 30.03 in
Visibility 10.0 miles
Clouds Clear
Heat Index 79 °F
Dew Point 50 °F
Humidity 36%
Rainfall 0.00 in
Snow Depth Not available.
UV 8 out of 12
Pollen 2.90 out of 12
Air Quality Not available.
Flu Activity Not available.
METAR KRBG 011853Z AUTO 00000KT 10SM CLR 24/10 A3004 RMK AO2 SLP168 T02390100

More Conditions Fewer Conditions

10-Day Weather Forecast

Almanac

Astronomy

Sep. 01, 2014 Rise Set
Actual Time 6:37 AM PDT 7:48 PM PDT
Civil Twilight 6:08 AM PDT 8:17 PM PDT
Nautical Twilight 5:33 AM PDT 8:52 PM PDT
Astronomical Twilight 4:56 AM PDT 9:29 PM PDT
Moon 1:40 PM PDT 11:42 PM PDT
Length of Visible Light 14h 09m
Length of Day
13h 10m
Tomorrow will be 2m 50s shorter.
Waxing Crescent, 43% of the Moon is Illuminated
Today
Waxing Crescent
Sep 2
First Quarter
Sep 8
Full
Sep 15
Last Quarter
Sep 24
New

Today's Extremes

State Highs State Lows

Community

WunderPhotos

Upload Photos

1,749,387 photos uploaded!

WunderBlogs® & News

Nearby

Snow Depth

Station Depth Elevation
Diamond Lake 0 in 5315 ft
Sevenmile Marsh 0 in 6200 ft
Fish Lake 0 in 4665 ft
Bigelow Camp 0 in 5120 ft
Fourmile Lake 1 in 6000 ft

Earthquake Activity

City Distance Mag. Time & Date
No recent earthquake activity has been reported nearby.
Minimum magnitude displayed is 2.5.

Coastal Water Temperatures

Place Temperature
No Stations Reporting

Nearby Weather Stations